DW9110 Weather Reports


time (UTC)temp
C
wind
direction
speed
KPH
gust
KPH
rain 1hr
cm
rain 24hr
cm
rain mn
cm
humidity
%
barometer
mb
20260906154522 30 84 3.2 11.3 0.00 1.63 0.00 71 1015.2
20260906153024 29 58 1.6 11.3 0.00 1.63 0.00 71 1015.2
20260906151513 28 76 1.6 6.4 0.00 1.63 0.00 72 1015.2
20260906150009 -17 0.0 0.0 0.00 1.63 0.00 1015.4
20260906144505 -17 0.0 0.0 0.00 1.63 0.00 1015.5
20260906143101 -17 0.0 0.0 0.00 1.63 0.00 1015.4
20260906141555 -17 0.0 0.0 0.00 1.63 0.00 1015.3
20260906140053 -17 0.0 0.0 0.00 1.63 0.00 1015.2
20260906134557 -17 0.0 0.0 0.00 1.63 0.00 1015.1
20260906133106 -17 0.0 0.0 0.00 1.63 0.00 1015.0
20260906131537 -17 0.0 0.0 0.00 1.63 0.00 1014.9
20260906130036 -17 0.0 0.0 0.00 1.63 0.00 1015.0
20260906124527 -17 0.0 0.0 0.00 1.63 0.00 1015.5
20260906123030 -17 0.0 0.0 0.00 1.63 0.00 1015.3
20260906121519 -17 0.0 0.0 0.00 1.63 0.00 1015.1
20260906120014 -17 0.0 0.0 0.00 1.63 0.00 1015.1
20260906114511 23 76 0.0 0.0 0.00 1.63 0.00 87 1015.0
20260906113009 23 75 0.0 0.0 0.00 1.63 0.00 88 1014.9
20260906111506 23 73 0.0 0.0 0.00 1.63 0.00 87 1014.8
20260906110007 24 76 0.0 9.7 0.00 1.63 0.00 88 1014.7
20260906104506 24 101 0.0 6.4 0.00 1.63 0.00 88 1014.6
20260906103002 24 67 0.0 9.7 0.00 1.63 0.00 88 1014.6
20260906101601 24 59 0.0 6.4 0.00 1.63 0.00 88 1014.4
20260906100100 25 78 0.0 8.0 0.00 1.63 0.00 88 1014.3
20260906100001 25 78 0.0 8.0 0.00 1.63 0.00 88 1014.3
20260906094558 25 67 0.0 8.0 0.00 1.63 0.00 88 1014.2
20260906093113 25 73 1.6 11.3 0.00 1.63 0.00 88 1014.0
20260906091556 25 67 0.0 6.4 0.00 1.63 0.00 88 1014.0
20260906090054 25 61 0.0 6.4 0.00 1.63 0.00 87 1013.8
20260906084553 25 46 0.0 11.3 0.00 1.63 0.00 87 1013.5
20260906083053 25 80 0.0 6.4 0.00 1.63 0.00 87 1013.5
20260906081552 25 84 0.0 3.2 0.00 1.63 0.00 88 1013.5
20260906080051 24 112 0.0 0.0 0.00 1.63 0.00 88 1013.4
20260906074552 24 113 0.0 0.0 0.00 1.63 0.00 88 1013.4
20260906073051 24 113 0.0 0.0 0.00 1.63 0.00 88 1013.4
20260906071549 25 114 0.0 0.0 0.00 1.63 0.00 87 1013.4
20260906070047 25 114 0.0 0.0 0.00 1.63 0.00 87 1013.5
20260906064546 25 113 0.0 0.0 0.00 1.63 0.00 87 1013.7
20260906063048 25 113 0.0 0.0 0.00 1.63 0.00 87 1013.7
20260906061545 25 113 0.0 0.0 0.00 1.63 0.00 87 1013.6
20260906060044 25 113 0.0 0.0 0.00 1.63 0.00 87 1013.6
20260906054554 25 113 0.0 0.0 0.00 1.63 0.00 87 1013.6
20260906053044 25 113 0.0 0.0 0.00 1.63 0.00 87 1013.6
20260906051541 25 113 0.0 0.0 0.00 1.63 0.00 87 1013.6
20260906050046 25 113 0.0 0.0 0.00 1.63 0.00 87 1013.6
20260906044538 25 113 0.0 0.0 0.00 1.63 1.63 87 1013.5
20260906043038 26 113 0.0 0.0 0.00 1.63 1.63 87 1013.5
20260906041539 26 113 0.0 0.0 0.00 1.63 1.63 87 1013.3
20260906040041 26 113 0.0 0.0 0.00 1.63 1.63 86 1013.1
20260906034543 26 113 0.0 0.0 0.00 1.63 1.63 86 1012.9
20260906033040 26 113 0.0 0.0 0.00 1.63 1.63 86 1012.9
20260906031536 26 111 0.0 0.0 0.00 1.63 1.63 86 1012.9
20260906030039 26 111 0.0 0.0 0.00 1.63 1.63 86 1012.8
20260906024538 26 111 0.0 0.0 0.00 1.63 1.63 86 1012.7
20260906023034 26 111 0.0 0.0 0.00 1.63 1.63 86 1012.4
20260906021533 26 109 0.0 0.0 0.00 1.63 1.63 85 1012.2
20260906020040 26 109 0.0 0.0 0.00 1.63 1.63 85 1012.1
20260906014544 26 109 0.0 0.0 0.00 1.63 1.63 84 1011.9
20260906013035 27 109 0.0 0.0 0.00 1.63 1.63 84 1011.7
20260906011532 27 109 0.0 0.0 0.00 1.63 1.63 83 1011.6
20260906010031 27 109 0.0 0.0 0.00 1.63 1.63 82 1011.5
20260906004531 27 109 0.0 0.0 0.00 1.63 1.63 81 1011.4
20260906003031 28 109 0.0 0.0 0.03 1.63 1.63 80 1011.5
20260906001530 29 119 0.0 0.0 0.03 1.63 1.63 78 1011.3
20260906000030 29 118 0.0 0.0 0.03 1.63 1.63 73 1011.3
20260905234529 29 118 0.0 3.2 0.03 1.63 1.63 73 1010.9
20260905233036 30 192 0.0 1.6 0.00 1.60 1.60 68 1010.8
20260905231533 30 192 0.0 0.0 0.00 1.60 1.60 67 1010.8
20260905230027 29 192 0.0 3.2 0.03 1.60 1.60 71 1011.0
20260905224527 27 185 0.0 12.9 1.04 1.60 1.60 74 1011.3
20260905223026 26 204 0.0 9.7 1.60 1.60 1.60 80 1011.5
20260905221532 26 198 0.0 6.4 1.60 1.60 1.60 81 1011.8
20260905220027 28 192 0.0 8.0 1.57 1.57 1.57 75 1011.8
20260905214528 30 78 0.0 25.7 0.56 0.56 0.56 63 1011.1
20260905213026 37 173 0.0 6.4 0.00 0.00 0.00 43 1010.9
20260905211530 36 175 0.0 3.2 0.00 0.00 0.00 46 1010.8
20260905210020 36 172 0.0 3.2 0.00 0.00 0.00 46 1011.2
20260905204520 36 252 3.2 14.5 0.00 0.00 0.00 43 1011.3
20260905203018 37 275 0.0 8.0 0.00 0.00 0.00 43 1011.5
20260905201518 38 272 0.0 8.0 0.00 0.00 0.00 39 1011.4
20260905200017 37 284 3.2 14.5 0.00 0.00 0.00 40 1011.6
20260905194516 37 319 0.0 16.1 0.00 0.00 0.00 42 1011.8
20260905193015 38 279 3.2 16.1 0.00 0.00 0.00 38 1011.9
20260905191517 38 319 6.4 14.5 0.00 0.00 0.00 38 1012.0
20260905190012 38 308 3.2 16.1 0.00 0.00 0.00 38 1012.0
20260905184517 38 292 1.6 11.3 0.00 0.00 0.00 40 1012.1
20260905183009 38 288 0.0 3.2 0.00 0.00 0.00 40 1012.2
20260905181508 37 296 3.2 12.9 0.00 0.00 0.00 39 1012.4
20260905180005 37 355 1.6 11.3 0.00 0.00 0.00 40 1012.6
20260905174504 37 346 0.0 8.0 0.00 0.00 0.00 41 1012.8
20260905173002 37 11 0.0 12.9 0.00 0.00 0.00 42 1012.9
20260905171605 37 348 0.0 8.0 0.00 0.00 0.00 41 1013.0
20260905170056 37 355 3.2 8.0 0.00 0.00 0.00 42 1013.1
20260905164553 37 345 0.0 6.4 0.00 0.00 0.00 45 1013.3
20260905163051 36 252 0.0 6.4 0.00 0.00 0.00 47 1013.1
20260905161544 36 247 0.0 3.2 0.00 0.00 0.00 50 1013.9
20260905160040 35 252 0.0 4.8 0.00 0.00 0.00 53 1014.0